Slide Mountain Weather observations

Data are for 10 minute period ending at time listed.
 Day   Time   Solar   Ave.   Ave.  Ave.  Vector  Max.    Baro.  
  of    of     Rad.   Air    Rel.  Wind   Wind   Wind   Press.  
Year   Day            Temp.  Hum.  Speed  Dir.   Gust           
2015   (PST)  Kw/m2    F      %     mph   deg.    mph     mb.   
-----------------------------------------------------------------
  62    0:10   0.00   17.6    93    0.1   337      0.3    705.2 
  62    0:20   0.00   17.5    93    0.1   322      0.3    705.2 
  62    0:30   0.00   17.6    93    0.1   323      0.1    705.2 
  62    0:40   0.00   17.6    93    0.1   314      0.3    705.2 
  62    0:50   0.00   17.6    93    0.1   326      0.4    705.1 
  62    1:00   0.00   17.1    93    0.1   310      0.8    705.1 
  62    1:10   0.00   16.9    93    0.1   306      0.4    705.1 
  62    1:20   0.00   16.8    93    0.1   307      0.4    705.0 
  62    1:30   0.00   16.8    93    0.1   318      0.3    705.1 
  62    1:40   0.00   16.8    93    0.1   318      0.3    705.1 
  62    1:50   0.00   16.8    93    0.1   322      0.3    705.1 
  62    2:00   0.00   16.6    93    0.1   321      0.3    705.2 
  62    2:10   0.00   16.2    93    0.1   322      0.3    705.1 
  62    2:20   0.00   16.0    93    0.1   314      0.4    705.0 
  62    2:30   0.00   15.7    93    0.1   304      0.3    705.0 
  62    2:40   0.00   15.7    93    0.1   319      0.3    705.0 
  62    2:50   0.00   15.9    93    0.1   330      0.3    704.9 
  62    3:00   0.00   15.9    93    0.1   333      0.3    705.0 
  62    3:10   0.00   16.0    93    0.1   341      0.3    705.0 
  62    3:20   0.00   16.0    93    0.1   342      0.3    704.9 
  62    3:30   0.00   16.1    93    0.1   349      0.1    705.0 
  62    3:40   0.00   16.1    93    0.1   343      0.1    705.0 
  62    3:50   0.00   16.0    92    0.1   324      0.1    705.0 
  62    4:00   0.00   15.9    92    0.1   338      0.1    704.9 
  62    4:10   0.00   15.8    92    0.1   350      0.3    704.9 
  62    4:20   0.00   15.8    92    0.1   354      0.3    705.0 
  62    4:30   0.00   15.8    92    0.1   358      0.3    705.0 
  62    4:40   0.00   15.9    92    0.1   347      0.3    704.9 
  62    4:50   0.00   15.8    92    0.1   338      0.3    704.9 
  62    5:00   0.00   15.8    92    0.1   344      0.3    704.9 
  62    5:10   0.00   15.6    92    0.1   350      0.4    705.0 
  62    5:20   0.00   15.7    92    0.1   338      0.3    705.0 
  62    5:30   0.00   15.7    92    0.1   345      0.3    705.0 
  62    5:40   0.00   15.6    92    0.1   343      0.3    705.0 
  62    5:50   0.00   15.5    92    0.1   345      0.3    705.1 
  62    6:00   0.00   15.4    92    0.1   346      0.3    705.1 
  62    6:10   0.00   15.3    92    0.1   348      0.3    705.1 
  62    6:20   0.00   15.0    92    0.1    14      0.3    705.2 
  62    6:30   0.00   14.7    92    0.1    28      0.3    705.2 
  62    6:40   0.01   14.6    92    0.1     1      0.3    705.2 
  62    6:50   0.02   14.7    92    0.1   342      0.3    705.2 
  62    7:00   0.02   15.1    92    0.1     3      0.3    705.3 
  62    7:10   0.03   15.4    92    0.1     3      0.3    705.4 
  62    7:20   0.04   15.7    92    0.1   350      0.3    705.5 
  62    7:30   0.03   16.0    93    0.1   358      0.3    705.5 
  62    7:40   0.04   16.2    93    0.1   360      0.3    705.7 
  62    7:50   0.06   16.3    93    0.1     4      0.3    705.7 
  62    8:00   0.06   16.4    93    0.1    26      0.1    705.8 
  62    8:10   0.09   16.6    93    0.1    28      0.3    706.0 
  62    8:20   0.10   16.7    93    0.1    21      0.4    706.0 
  62    8:30   0.16   16.8    93    0.1    11      0.3    706.1 
  62    8:40   0.21   17.5    93    0.1     2      0.3    706.2 
  62    8:50   0.19   18.2    93    0.1   359      0.3    706.4 
  62    9:00   0.16   18.4    93    0.0    14      0.1    706.4 
  62    9:10   0.17   18.1    93    0.0     0      0.2    706.5 
  62    9:20   0.20   18.4    93    0.0   353      0.2    706.5 
  62    9:30   0.19   18.3    93    0.0   309      0.3    706.6 
  62    9:40   0.21   18.4    93    0.1     1      0.2    706.5 
  62    9:50   0.34   19.1    93    0.1   348      0.2    706.5 
  62   10:00   0.35   20.0    94    0.1   348      0.3    706.6 
  62   10:10   0.36   20.8    94    0.1   349      0.3    706.6 
  62   10:20   0.51   21.6    94    0.1   343      0.3    706.6 
  62   10:30   0.54   22.4    94    0.1   344      0.3    706.6 
  62   10:40   0.40   23.2    95    0.1   359      0.2    706.7 
  62   10:50   0.46   22.8    94    0.1   346      0.3    706.7 
  62   11:00   0.67   22.3    93    0.1   341      0.3    706.7 
  62   11:10   0.52   23.1    94    0.1   339      0.3    706.7 
  62   11:20   0.51   23.2    94    0.1   356      0.1    706.7 
  62   11:30   0.62   22.8    93    0.1   312      0.1    706.8 
  62   11:40   0.46   24.0    94    0.1   263      0.1    706.8 
  62   11:50   0.32   24.5    94    0.1   231      0.3    706.8 
  62   12:00   0.42   25.6    94    0.1   182      0.1    706.8 
  62   12:10   0.47   26.1    94    0.1    19      0.3    706.8 
  62   12:20   0.41   25.3    94    0.1   110      0.3    706.8 
  62   12:30   0.42   24.7    94    0.1   136      0.2    706.8 
  62   12:40   0.56   24.5    93    0.0   329      0.1    706.9 
  62   12:50   0.67   22.3    92    0.0     8      0.3    706.9 
  62   13:00   0.62   21.7    92    0.0    72      0.2    706.9 
  62   13:10   0.58   21.7    92    0.1    74      0.7    706.8 
  62   13:20   0.65   21.5    92    0.1   360      0.3    706.7 
  62   13:30   0.61   21.6    92    0.1    50      0.3    706.8 
  62   13:40   0.62   21.0    92    0.1     2      0.3    706.7 
  62   13:50   0.61   21.2    92    0.1    30      0.3    706.7 
  62   14:00   0.58   21.0    92    0.1    48      0.3    706.7 
  62   14:10   0.58   20.4    91    0.1   359      0.3    706.8 
  62   14:20   0.56   21.1    92    0.1    49      0.3    706.8 
  62   14:30   0.54   21.8    92    0.1    75      0.3    706.8 
  62   14:40   0.52   22.0    92    0.1    20      0.3    706.9 
  62   14:50   0.50   21.9    91    0.1     2      0.3    706.8 
  62   15:00   0.48   19.2    89    0.1    16      0.4    706.9 
  62   15:10   0.46   17.7    90    0.1     3      0.3    706.9 
  62   15:20   0.43   18.4    90    0.1    28      0.3    707.0 
  62   15:30   0.41   17.6    89    0.1    15      0.4    706.9 
  62   15:40   0.38   16.5    89    0.1    20      0.6    706.9 
  62   15:50   0.35   16.6    89    0.1    13      0.4    706.9 
  62   16:00   0.33   16.9    88    0.1     8      0.6    706.9 
  62   16:10   0.30   17.2    87    0.1     8      0.4    706.9 
  62   16:20   0.27   16.4    88    0.1    20      0.4    706.9 
  62   16:30   0.24   15.3    88    0.1    34      0.4    707.0 
  62   16:40   0.21   15.7    88    0.1    29      0.4    707.0 
  62   16:50   0.18   16.6    85    0.1    27      0.3    707.0 
  62   17:00   0.16   17.1    81    0.1    14      0.3    707.0 
  62   17:10   0.13   17.2    78    0.1    14      0.3    707.0 
  62   17:20   0.10   17.5    74    0.1    27      1.0    706.9 
  62   17:30   0.06   17.7    64    0.1    38      0.4    706.9 
  62   17:40   0.03   18.2    51    0.1    41      0.4    706.9 
  62   17:50   0.01   18.8    36    0.1    41      0.6    706.9 
  62   18:00   0.00   19.6    19    0.1    38      0.7    706.9 
  62   18:10   0.00   19.9    18    0.1    38      0.7    706.9 
  62   18:20   0.00   19.7    21    0.1    40      0.7    707.0 
  62   18:30   0.00   19.6    24    0.1    33      0.7    707.0 
  62   18:40   0.00   19.1    33    0.1    39      0.8    707.1 
  62   18:50   0.00   18.4    44    0.1    43      0.6    707.1 
  62   19:00   0.00   17.6    53    0.1    44      0.8    707.2 
  62   19:10   0.00   19.5    31    0.1    47      0.8    707.2 
  62   19:20   0.00   19.3    29    0.1    55      1.0    707.2 
  62   19:30   0.00   19.5    23    0.1    55      1.7    707.2 
  62   19:40   0.00   19.2    24    0.1    68      1.2    707.4 
  62   19:50   0.00   19.0    25    0.1    56      1.0    707.4 
  62   20:00   0.00   19.3    22    0.1    53      0.8    707.5 
  62   20:10   0.00   17.8    48    0.1    43      1.1    707.6 
  62   20:20   0.00   17.9    46    0.1    43      0.7    707.6 
  62   20:30   0.00   17.9    45    0.1    47      0.7    707.7 
  62   20:40   0.00   18.6    30    0.1    55      0.8    707.7 
  62   20:50   0.00   18.6    26    0.1    56      0.8    707.7 
  62   21:00   0.00   17.4    37    0.1    51      1.1    707.8 
  62   21:10   0.00   18.0    25    0.1    52      1.2    707.8 
  62   21:20   0.00   17.7    31    0.1    44      0.8    707.9 
  62   21:30   0.00   17.9    21   21.1    49     25.4    708.0 
  62   21:40   0.00   18.1    20   26.2    50     29.8    708.1 
  62   21:50   0.00   17.7    28   26.4    44     29.6    708.1 
  62   22:00   0.00   18.2    19   26.0    46     29.3    708.2 
  62   22:10   0.00   16.9    29   26.6    41     31.1    708.2 
  62   22:20   0.00   15.7    44   27.0    41     30.9    708.2 
  62   22:30   0.00   15.5    42   27.6    39     32.0    708.3 
  62   22:40   0.00   15.2    45   28.6    40     34.0    708.3 
  62   22:50   0.00   15.1    44   32.2    42     38.4    708.3 
  62   23:00   0.00   15.2    45   34.1    46     38.5    708.3 
  62   23:10   0.00   15.3    46   31.2    45     35.8    708.3 
  62   23:20   0.00   15.1    51   34.1    45     39.5    708.3 
  62   23:30   0.00   15.1    50   30.9    43     37.5    708.4 
  62   23:40   0.00   15.3    48   28.2    43     33.6    708.5 
  62   23:50   0.00   15.2    50   29.2    46     33.1    708.5 
  63    0:00   0.00   15.3    50   29.1    45     35.1    708.5 

Return to Slide Mountain graphs page.


Western Regional Climate Center,wrcc@dri.edu